Regional Weather Roundup
Issued by NWS

Home | Current Version | Previous Version | Graphics & Text | Print | Product List | Glossary On
Versions: 1 2 3 4 5 6 7 8 9 10 11 12 13 14 15 16 17 18 19 20 21 22 23 24 25 26 27 28 29 30 31 32 33 34 35 36 37 38 39 40 41 42 43 44 45 46 47 48 49 50
000
ASUS43 KMPX 031310
RWRMN
WEATHER ROUNDUP FOR MINNESOTA
NATIONAL WEATHER SERVICE TWIN CITIES/CHANHASSEN MN
800 AM CDT THU SEP 03 2015


NOTE: "FAIR" INDICATES FEW OR NO CLOUDS BELOW 12,000 FEET WITH NO
SIGNIFICANT WEATHER AND/OR OBSTRUCTIONS TO VISIBILITY. N/A MEANS
CURRENT SKY AND/OR WEATHER CONDITIONS ARE NOT AVAILABLE.

MNZ060>063-068>070-031400-
   Twin Cities Metro

CITY           SKY/WX    TMP DP  RH WIND       PRES   REMARKS
TWIN CITIES    CLOUDY    69  68  96 SE7       29.92R FOG
ST PAUL        CLOUDY    69  68  96 E3        29.92R
CRYSTAL        CLOUDY    71  67  87 E6        29.90S
BLAINE         MOSUNNY   70  70 100 E5        29.92R
LAKEVILLE      FOG       66  66 100 E6        29.92R VSB<1/4
EDEN PRAIRIE   FOG       69  68  96 E6        29.90S VSB 1/4
SOUTH ST PAUL  CLOUDY    69  67  92 SE5       29.92S
LAKE ELMO      FOG       68  66  94 CALM      29.94R VSB 1/4
$$
MNZ001>005-007-008-013>017-022>024-027-028-031400-
   Northwest Minnesota

CITY           SKY/WX    TMP DP  RH WIND       PRES   REMARKS
BEMIDJI        CLOUDY    65  64  93 SE10      29.91S
HALLOCK        CLOUDY    70  66  88 SE14      29.80R FOG
ROSEAU         CLOUDY    66  63  88 SE12G17   29.86R HAZE
WARROAD        CLOUDY    64  61  88 SE9       29.88S
THIEF RVR FALL PTSUNNY   70  68  94 SE13      29.84S
CROOKSTON      CLOUDY    73  70  88 SE17      29.81S
FOSSTON        SUNNY     70  64  83 SE14G20   29.86S
DETROIT LAKES  CLOUDY    70  64  83 SE16      29.87S
MOORHEAD       MOSUNNY   72  70  94 SE9       29.81S FOG
PARK RAPIDS    PTSUNNY   68  64  87 SE9       29.90F
MAHNOMEN       FAIR      69  65  88 SE10      29.85R
$$
MNZ006-009>011-018-025>026-031400-
   North Central Minnesota

CITY           SKY/WX    TMP DP  RH WIND       PRES   REMARKS
BAUDETTE       CLOUDY    65  62  90 SE15      29.92R
FLAG ISLAND    PTSUNNY   66  63  88 SE17G25   29.88S
INTL FALLS     CLOUDY    63  61  93 SE12      29.96R
WASKISH        CLOUDY    64  63  94 SE7       29.93R
BIG FORK       CLOUDY    64  63  94 SE6       29.97R
LONGVILLE      MOSUNNY   64  63  94 SE5       29.94S
GRAND RAPIDS     N/A     63  61  94 SE3       29.97R
CRANE LAKE     CLOUDY    55  55 100 SE1       30.01R VSB 1
ORR            CLOUDY    61  57  88 CALM      29.96S VSB 3/4
COOK           CLOUDY    61  61 100 CALM      29.99S FOG
WALKER         CLOUDY    65  62  92 SE9       29.92S
$$
MNZ012-019>021-037-031400-
   Northeast Minnesota

CITY           SKY/WX    TMP DP  RH WIND       PRES   REMARKS
DULUTH         DRZL/FOG  61  60  97 E9        29.99R VSB 1/4
ELY            FOG       55  55 100 CALM      30.01R VSB 1/4
HIBBING        CLOUDY    61  60  97 SE8       29.99R FOG
EVELETH        FOG       61  61 100 CALM      30.00R VSB 1
DULUTH HARBOR  FOG       59  57  94 NE9       29.99R VSB 1/2
TWO HARBORS    HAZE      64  59  82 E6        29.98R VSB<1/4
SILVER BAY     FOG       63  61  94 NE5       29.99R VSB<1/4
GRAND MARAIS     N/A     57  55  93 E5        30.00R
G MARAIS ARPRT SUNNY     57  55  94 NE3       30.04R
$$
MNZ029>031-032-039>041-046>048-054>057-064-031400-
   West Central Minnesota

CITY           SKY/WX    TMP DP  RH WIND       PRES   REMARKS
FERGUS FALLS   CLOUDY    72  72 100 SE12G17   29.83S FOG
WHEATON        CLOUDY    68  66  94 SE13      29.83F FOG
MORRIS         FOG       70  70 100 SE13      29.84S VSB 1/4
ALEXANDRIA     FOG       67  67 100 E9        29.90S VSB 1/4
ELBOW LAKE     CLOUDY    69  68  99 SE10      29.84F FOG
WADENA         MOSUNNY   66  64  94 E10       29.89S
GLENWOOD       FOG       66  66 100 E10       29.89S VSB<1/4
APPLETON       FOG       72  68  88 SE7       29.84S VSB 1/4
BENSON         FOG       70  66  88 SE6       29.86R VSB 1/4
ORTONVILLE     CLOUDY    70  68  94 SE9       29.83S VSB<1/4
MADISON        FOG       72  70  94 SE9       29.84S VSB 1/2
WILLMAR        FOG       70  70 100 E9        29.89S VSB 1/4
$$
MNZ033>034-036-042>043-049>051-058-059-031400-
   Central Minnesota

CITY           SKY/WX    TMP DP  RH WIND       PRES   REMARKS
ST CLOUD       MOSUNNY   67  65  93 E7        29.91S
SAUK CENTRE    FOG       67  67  99 E12       29.90S VSB 1/2
PAYNESVILLE    FOG       67  67 100 NE8       29.90S VSB 1/4
AITKIN         CLOUDY    63  57  82 E6        29.95S
PINE RIVER     CLOUDY    64  64 100 SE9       29.96S FOG
BRAINERD       PTSUNNY   67  65  93 VRB3      29.93S
STAPLES        CLOUDY    66  64  94 E7        29.91S
LONG PRAIRIE   CLOUDY    66  64  94 E6        29.91F
LITTLE FALLS   CLOUDY    68  63  83 SE7       29.92S
LITCHFIELD     DRZL/FOG  70  70 100 E7        29.90S VSB<1/4
BUFFALO        FOG       67  65  93 E3        29.92R VSB 1/2
MAPLE LAKE     FOG       68  68  98 E5        29.92S VSB 1/2
$$
MNZ037-044-045-052-053-031400-
   East Central Minnesota

CITY           SKY/WX    TMP DP  RH WIND       PRES   REMARKS
PRINCETON      CLOUDY    68  66  94 CALM      29.93S
MORA           FOG       63  63 100 E5        29.96S VSB 1/4
CAMBRIDGE      CLOUDY    68  61  77 E3        29.92R HAZE
RUSH CITY      CLOUDY    64  63  96 NE6       29.94S FOG
MOOSE LAKE     FOG       59  59 100 NE5       29.96S VSB 3/4
HINCKLEY       CLOUDY    64  64 100 E7        29.96S FOG
CLOQUET        FOG       61  59  94 E5        29.98S VSB<1/4
MCGREGOR       CLOUDY    63  61  94 SE5       29.97R
$$
MNZ071>073-080-081-089-090-097-098-031400-
   Southwest Minnesota

CITY           SKY/WX    TMP DP  RH WIND       PRES   REMARKS
MONTEVIDEO     FOG       70  70 100 S7        29.87S VSB 1/4
GRANITE FALLS  FOG       69  69 100 E6        29.87S VSB 1/4
CANBY          FOG       68  66  96 SE7       29.86R VSB<1/4
MARSHALL       CLOUDY    66  63  88 SE6       29.87R
REDWOOD FALLS  FOG       69  68  96 E7        29.86S VSB 1/4
OLIVIA         FOG       68  64  88 E9        29.86F VSB 1/2
PIPESTONE      SUNNY     68  66  94 SE5       29.87R FOG
WINDOM         SUNNY     70  66  88 CALM      29.88S
WORTHINGTON    SUNNY     68  64  88 S6        29.88S
JACKSON        SUNNY     70  68  94 S6        29.89S FOG
TRACY          SUNNY     70  69  96 S6        29.87R
SLAYTON        FOG       65  65 100 CALM      29.89R VSB<1/4
$$
MNZ065>067-074>077-082>085-091>093-031400-
   South Central Minnesota

CITY           SKY/WX    TMP DP  RH WIND       PRES   REMARKS
MANKATO        SUNNY     70  66  88 SE8       29.90R
NEW ULM        SUNNY     70  70 100 SE6       29.88S FOG
ST JAMES       SUNNY     70  70 100 E6        29.89S FOG
FAIRMONT       SUNNY     66  63  88 SE6       29.89R
GLENCOE        FOG       70  70 100 E6        29.90R VSB 1/4
FARIBAULT      SUNNY     68  66  94 CALM      29.91S FOG
OWATONNA       SUNNY     70  66  88 SE7       29.91S FOG
WASECA         SUNNY     66  64  94 SE5       29.92R FOG
ALBERT LEA     SUNNY     70  68  94 SE5       29.92S FOG
$$
MNZ078>079-086>088-094>096-031400-
   Southeast Minnesota

CITY           SKY/WX    TMP DP  RH WIND       PRES   REMARKS
ROCHESTER      SUNNY     68  67  96 S5        29.93S FOG
RED WING       CLOUDY    70  68  94 E3        29.91S
STANTON        FOG       68  67  94 CALM      29.91R VSB 1/4
DODGE CENTER   SUNNY     66  66 100 CALM      29.93S FOG
WINONA         FOG       70  68  94 CALM      29.93R VSB<1/4
AUSTIN         SUNNY     72  70  94 S5        29.93S FOG
PRESTON        SUNNY     68  66  94 S3        29.94S FOG
$$
ABBREVIATIONS USED IN REMARKS
   TC - TEMPERATURES IN CELSIUS
  WCI - WIND CHILL INDEX
   HX - HEAT INDEX
  VSB - VISIBILITY
$$


USA.gov is the U.S. government's official web portal to all federal, state and local government web resources and services.